Terminal Aerodrome Forecast
Issued by NWS Twin Cities, MN

Home | Current Version | Previous Version | Text Only | Print | Product List | Glossary On
Versions: 1 2 3 4 5 6 7 8 9 10 11 12 13 14 15 16 17 18 19 20 21 22
000
FTUS43 KMPX 212004 AAA
TAFSTC
TAF AMD
KSTC 212004Z 2120/2218 17012KT P6SM SCT025 BKN250
     FM220100 12006KT P6SM BKN090
     FM220600 12005KT P6SM VCTS BKN090CB
     FM221000 34005KT P6SM BKN020
     FM221600 32006KT P6SM BKN040 BKN090=

USA.gov is the U.S. government's official web portal to all federal, state and local government web resources and services.